Lincoln, IL

9:02 AM CDT on September 26, 2016 (GMT -0500)
Lincoln

Weather History for KAAA - March, 2013

Change the Weather History Date:

Monday, March 25, 2013

  Actual Average (KSPI) Record (KSPI)
Temperature  
Mean Temperature 33 °F 46 °F  
Max Temperature 38 °F 56 °F 82 °F (1907)
Min Temperature 28 °F 35 °F 7 °F (1960)
Degree Days  
Heating Degree Days 32 19  
Month to date heating degree days 601  
Since 1 July heating degree days 4872  
Cooling Degree Days 0 0  
Month to date cooling degree days 0  
Year to date cooling degree days 0  
Moisture  
Dew Point 28 °F    
Average Humidity 82    
Maximum Humidity 96    
Minimum Humidity 65    
Precipitation  
Precipitation 0.16 in 0.08 in 1.85 in (1920)
Month to date precipitation 2.07  
Year to date precipitation 5.70  
Snow  
Snow 0.00 in 0.10 in 2.80 in (1944)
Month to date snowfall 2.3  
Since 1 July snowfall 20.4  
Snow Depth -    
Sea Level Pressure  
Sea Level Pressure 29.92 in    
Wind  
Wind Speed 9 mph (NW)    
Max Wind Speed 14 mph    
Max Gust Speed 21 mph    
Visibility 8 miles    
Events Snow    
T = Trace of Precipitation, MM = Missing Value Source: NWS Daily Summary

Daily Weather History Graph

Daily Weather History Graph

Search for Another Location

Airport or City:

Trip Planner

Search our weather history database for the weather conditions in past years. The results will help you decide how hot, cold, wet, or windy it might be!

Date:

Astronomy

Mar. 25, 2013 Rise Set
Actual Time 6:52 AM CDT 7:14 PM CDT
Civil Twilight 6:25 AM CDT 7:42 PM CDT
Nautical Twilight 5:53 AM CDT 8:14 PM CDT
Astronomical Twilight 5:20 AM CDT 8:46 PM CDT
Moon 5:46 PM CDT (3/25) 5:35 AM CDT (3/25)
Length of Visible Light 13h 17m
Length of Day
12h 22m
Waxing Gibbous, 96% of the Moon is Illuminated
Mar 25
Waxing Gibbous
Mar 27
Full
Apr 2
Last Quarter
Apr 10
New
Apr 18
First Quarter

Hourly Weather History & Observations

Time (CDT) Temp. Windchill Dew Point Humidity Pressure Visibility Wind Dir Wind Speed Gust Speed Precip Events Conditions
12:15 AM 32.0 °F 23.6 °F 30.9 °F 96% 29.73 in 1.5 mi NW 10.4 mph 16.1 mph N/A Snow Light Snow
12:35 AM 32.0 °F 23.6 °F 30.7 °F 95% 29.73 in 1.5 mi NNW 10.4 mph - N/A Snow Light Snow
12:55 AM 32.0 °F 23.6 °F 30.7 °F 95% 29.74 in 1.5 mi NNW 10.4 mph - N/A Snow Light Snow
1:15 AM 31.8 °F 23.9 °F 30.7 °F 96% 29.75 in 1.0 mi NNW 9.2 mph 16.1 mph N/A Snow Snow
1:35 AM 31.6 °F 23.1 °F 30.6 °F 96% 29.75 in 1.5 mi NNW 10.4 mph 16.1 mph N/A Snow Light Snow
1:55 AM 31.6 °F 25.1 °F 30.2 °F 94% 29.75 in 2.0 mi NNW 6.9 mph - N/A Snow Light Snow
2:15 AM 31.5 °F 23.5 °F 30.2 °F 95% 29.75 in 2.0 mi NW 9.2 mph - N/A Snow Light Snow
2:35 AM 31.1 °F 23.1 °F 30.0 °F 96% 29.76 in 1.8 mi NW 9.2 mph - N/A Snow Light Snow
2:55 AM 31.1 °F 23.1 °F 29.8 °F 95% 29.76 in 2.0 mi NW 9.2 mph - N/A Snow Light Snow
3:15 AM 30.7 °F 22.6 °F 29.7 °F 96% 29.76 in 2.0 mi NW 9.2 mph - N/A Snow Light Snow
3:35 AM 30.2 °F 21.3 °F 29.1 °F 96% 29.76 in 2.5 mi NW 10.4 mph - N/A Snow Light Snow
3:55 AM 30.2 °F 23.4 °F 29.1 °F 96% 29.76 in 2.5 mi NW 6.9 mph - N/A Snow Light Snow
4:15 AM 30.2 °F 21.3 °F 28.9 °F 95% 29.76 in 2.5 mi NW 10.4 mph 16.1 mph N/A Snow Light Snow
4:35 AM 30.0 °F 21.1 °F 28.4 °F 94% 29.76 in 3.0 mi NW 10.4 mph 18.4 mph N/A Snow Light Snow
4:55 AM 29.7 °F 21.3 °F 28.2 °F 94% 29.77 in 3.0 mi NW 9.2 mph 16.1 mph N/A Snow Light Snow
5:15 AM 29.3 °F 19.1 °F 28.0 °F 95% 29.78 in 3.0 mi NW 12.7 mph 18.4 mph N/A Snow Light Snow
5:35 AM 29.3 °F 21.5 °F 27.9 °F 94% 29.78 in 4.0 mi NW 8.1 mph - N/A Snow Light Snow
5:55 AM 29.1 °F 20.6 °F 27.9 °F 95% 29.79 in 3.0 mi NW 9.2 mph - N/A Snow Light Snow
6:15 AM 29.1 °F 21.3 °F 27.5 °F 94% 29.79 in 3.0 mi NW 8.1 mph - N/A Snow Light Snow
6:35 AM 28.9 °F 21.1 °F 27.5 °F 94% 29.80 in 7.0 mi NW 8.1 mph 17.3 mph N/A   Overcast
6:55 AM 29.1 °F 20.6 °F 27.3 °F 93% 29.81 in 10.0 mi NW 9.2 mph - N/A   Overcast
7:15 AM 29.1 °F 21.3 °F 27.0 °F 92% 29.81 in 10.0 mi NW 8.1 mph - N/A   Overcast
7:35 AM 29.7 °F 22.0 °F 27.0 °F 90% 29.82 in 10.0 mi NW 8.1 mph - N/A   Overcast
7:55 AM 30.0 °F 23.2 °F 27.0 °F 88% 29.83 in 10.0 mi WNW 6.9 mph - N/A   Overcast
8:15 AM 30.7 °F 22.6 °F 26.2 °F 83% 29.84 in 10.0 mi NW 9.2 mph - N/A   Overcast
8:35 AM 31.1 °F 23.7 °F 26.1 °F 82% 29.85 in 10.0 mi NW 8.1 mph - N/A   Overcast
8:55 AM 31.8 °F 23.9 °F 24.8 °F 75% 29.86 in 10.0 mi NW 9.2 mph 17.3 mph N/A   Overcast
9:15 AM 32.0 °F 23.6 °F 24.8 °F 75% 29.86 in 10.0 mi NW 10.4 mph - N/A   Overcast
9:35 AM 32.0 °F 24.2 °F 25.0 °F 75% 29.87 in 10.0 mi NW 9.2 mph 17.3 mph N/A   Overcast
9:55 AM 32.0 °F 23.6 °F 25.5 °F 77% 29.88 in 7.0 mi NW 10.4 mph - N/A Snow Light Snow
10:15 AM 32.0 °F 23.0 °F 26.4 °F 80% 29.89 in 2.5 mi NW 11.5 mph 18.4 mph 0.01 in Snow Light Snow
10:35 AM 32.2 °F 23.2 °F 27.0 °F 81% 29.89 in 4.0 mi NW 11.5 mph 17.3 mph 0.01 in Snow Light Snow
10:55 AM 32.9 °F 24.7 °F 27.0 °F 79% 29.90 in 5.0 mi NW 10.4 mph 20.7 mph 0.03 in Snow Light Snow
11:15 AM 33.8 °F 26.4 °F 27.0 °F 76% 29.91 in 10.0 mi NW 9.2 mph 18.4 mph N/A   Mostly Cloudy
11:35 AM 34.2 °F 26.2 °F 27.0 °F 75% 29.91 in 10.0 mi NW 10.4 mph 17.3 mph 0.02 in   Overcast
11:55 AM 34.7 °F 26.4 °F 26.6 °F 72% 29.92 in 10.0 mi NNW 11.5 mph 19.6 mph 0.02 in   Overcast
12:15 PM 34.9 °F 26.6 °F 27.3 °F 74% 29.92 in 10.0 mi NNW 11.5 mph 17.3 mph 0.01 in   Overcast
12:35 PM 35.6 °F 27.1 °F 27.5 °F 72% 29.92 in 10.0 mi NW 12.7 mph 16.1 mph 0.04 in   Overcast
12:55 PM 36.1 °F 27.3 °F 27.7 °F 71% 29.93 in 10.0 mi NW 13.8 mph 19.6 mph 0.07 in   Overcast
1:15 PM 37.0 °F 30.4 °F 28.0 °F 70% 29.93 in 10.0 mi NW 9.2 mph 17.3 mph 0.04 in   Overcast
1:35 PM 37.8 °F 30.2 °F 27.0 °F 65% 29.93 in 10.0 mi NW 11.5 mph 18.4 mph 0.04 in   Overcast
1:55 PM 37.6 °F 30.0 °F 27.5 °F 67% 29.94 in 10.0 mi NW 11.5 mph 20.7 mph 0.04 in   Overcast
2:15 PM 38.5 °F 32.7 °F 28.2 °F 67% 29.94 in 10.0 mi NW 8.1 mph 18.4 mph N/A   Mostly Cloudy
2:35 PM 38.3 °F 31.9 °F 28.0 °F 67% 29.94 in 10.0 mi NW 9.2 mph 16.1 mph N/A   Scattered Clouds
2:55 PM 37.4 °F 30.3 °F 27.9 °F 68% 29.95 in 10.0 mi NW 10.4 mph 18.4 mph N/A   Scattered Clouds
3:15 PM 37.8 °F 31.8 °F 28.4 °F 69% 29.96 in 10.0 mi WNW 8.1 mph 16.1 mph N/A   Mostly Cloudy
3:35 PM 37.6 °F 32.3 °F 28.2 °F 69% 29.96 in 10.0 mi NW 6.9 mph 16.1 mph N/A   Scattered Clouds
3:55 PM 37.6 °F 31.0 °F 28.0 °F 68% 29.97 in 10.0 mi NW 9.2 mph 18.4 mph N/A   Scattered Clouds
4:15 PM 37.6 °F 31.6 °F 27.9 °F 68% 29.98 in 10.0 mi NW 8.1 mph - N/A   Scattered Clouds
4:35 PM 37.6 °F 32.3 °F 27.9 °F 68% 29.99 in 10.0 mi NW 6.9 mph - N/A   Clear
4:55 PM 37.6 °F 30.0 °F 27.5 °F 67% 30.00 in 10.0 mi NW 11.5 mph 17.3 mph N/A   Scattered Clouds
5:15 PM 36.9 °F 29.6 °F 27.7 °F 69% 30.01 in 10.0 mi NW 10.4 mph 16.1 mph N/A   Mostly Cloudy
5:35 PM 36.5 °F 29.7 °F 27.9 °F 71% 30.02 in 10.0 mi NW 9.2 mph 16.1 mph N/A   Overcast
5:55 PM 36.1 °F 29.9 °F 28.0 °F 72% 30.02 in 10.0 mi NW 8.1 mph - N/A   Overcast
6:15 PM 36.0 °F 32.1 °F 27.9 °F 72% 30.03 in 10.0 mi NW 4.6 mph - N/A   Overcast
6:35 PM 35.8 °F 28.3 °F 28.2 °F 74% 30.04 in 10.0 mi NW 10.4 mph 17.3 mph N/A   Overcast
6:55 PM 34.5 °F 29.4 °F 29.5 °F 82% 30.06 in 10.0 mi NW 5.8 mph - N/A   Overcast
7:15 PM 35.1 °F 29.3 °F 28.2 °F 76% 30.06 in 10.0 mi NW 6.9 mph - N/A   Overcast
7:35 PM 34.9 °F 29.9 °F 28.8 °F 78% 30.07 in 10.0 mi NW 5.8 mph - N/A   Overcast
7:55 PM 34.9 °F 29.9 °F 28.9 °F 79% 30.08 in 10.0 mi NW 5.8 mph - N/A   Overcast
8:15 PM 34.9 °F 29.0 °F 28.9 °F 79% 30.09 in 10.0 mi NW 6.9 mph - N/A   Overcast
8:35 PM 34.7 °F 30.6 °F 29.1 °F 80% 30.09 in 10.0 mi NW 4.6 mph - N/A   Overcast
8:55 PM 34.5 °F 29.4 °F 29.3 °F 81% 30.10 in 10.0 mi NW 5.8 mph - N/A   Overcast
9:15 PM 34.5 °F 30.4 °F 29.3 °F 81% 30.10 in 10.0 mi NW 4.6 mph - N/A   Overcast
9:35 PM 34.3 °F 29.2 °F 29.3 °F 82% 30.11 in 10.0 mi NW 5.8 mph - N/A   Overcast
9:55 PM 34.2 °F 28.2 °F 29.3 °F 82% 30.11 in 10.0 mi NW 6.9 mph - N/A   Overcast
10:15 PM 34.2 °F 30.0 °F 29.1 °F 82% 30.12 in 10.0 mi NW 4.6 mph - N/A   Overcast
10:35 PM 34.0 °F 28.8 °F 29.1 °F 82% 30.12 in 10.0 mi NW 5.8 mph - N/A   Overcast
10:55 PM 34.0 °F 29.8 °F 29.1 °F 82% 30.13 in 10.0 mi NW 4.6 mph - N/A   Overcast
11:15 PM 33.8 °F 30.8 °F 29.3 °F 84% 30.13 in 10.0 mi NW 3.5 mph - N/A   Overcast
11:35 PM 33.8 °F 30.8 °F 29.3 °F 84% 30.13 in 10.0 mi NW 3.5 mph - N/A   Overcast
11:55 PM 33.8 °F 30.8 °F 29.3 °F 84% 30.13 in 10.0 mi WNW 3.5 mph - N/A   Overcast